Springfield, IL

10:42 AM CDT on March 27, 2017 (GMT -0500)
Capital

Weather History for KSPI - October, 2013

Change the Weather History Date:

Saturday, October 19, 2013

  Actual Average Record
Temperature  
Mean Temperature 48 °F 54 °F  
Max Temperature 57 °F 65 °F 85 °F (1953)
Min Temperature 38 °F 43 °F 19 °F (1992)
Degree Days  
Heating Degree Days 17 11  
Month to date heating degree days 126 169  
Since 1 July heating degree days 176 250  
Cooling Degree Days 0 0  
Month to date cooling degree days 45 19  
Year to date cooling degree days 1145 1118  
Moisture  
Dew Point 38 °F    
Average Humidity 71    
Maximum Humidity 100    
Minimum Humidity 41    
Precipitation  
Precipitation 0.15 in 0.11 in 1.64 in (1885)
Month to date precipitation 1.24 1.90  
Year to date precipitation 33.16 30.45  
Snow  
Snow 0.00 in 0.00 in 0.30 in (1989)
Month to date snowfall 0.0 0.0  
Since 1 July snowfall 0.0 0.0  
Since 1 September snowfall 0.0 0.0  
Snow Depth 0.00 in    
Sea Level Pressure  
Sea Level Pressure 29.96 in    
Wind  
Wind Speed 9 mph (WSW)    
Max Wind Speed 21 mph    
Max Gust Speed 29 mph    
Visibility 10 miles    
Events Rain    
T = Trace of Precipitation, MM = Missing Value Source: NWS Daily Summary

Daily Weather History Graph

Daily Weather History Graph

Search for Another Location

Airport or City:

Trip Planner

Search our weather history database for the weather conditions in past years. The results will help you decide how hot, cold, wet, or windy it might be!

Date:

Astronomy

Oct. 19, 2013 Rise Set
Actual Time 7:13 AM CDT 6:13 PM CDT
Civil Twilight 6:46 AM CDT 6:40 PM CDT
Nautical Twilight 6:14 AM CDT 7:11 PM CDT
Astronomical Twilight 5:43 AM CDT 7:43 PM CDT
Moon 6:41 PM CDT (10/19) 7:51 AM CDT (10/19)
Length of Visible Light 11h 54m
Length of Day
10h 59m
Waxing Gibbous, 99% of the Moon is Illuminated
Oct 19
Waxing Gibbous
Oct 26
Last Quarter
Nov 3
New
Nov 9
First Quarter
Nov 17
Full

Hourly Weather History & Observations

Time (CDT) Temp. Windchill Dew Point Humidity Pressure Visibility Wind Dir Wind Speed Gust Speed Precip Events Conditions
12:48 AM 42.8 °F 39.3 °F 42.8 °F 100% 29.98 in 9.0 mi WNW 5.8 mph - 0.03 in Rain Light Rain
12:52 AM 43.0 °F 39.5 °F 42.1 °F 97% 29.99 in 9.0 mi WNW 5.8 mph - 0.03 in Rain Light Rain
1:52 AM 42.1 °F 37.1 °F 41.0 °F 96% 29.99 in 10.0 mi WNW 8.1 mph - 0.04 in Rain Light Rain
2:22 AM 42.8 °F 39.3 °F 41.0 °F 93% 29.98 in 8.0 mi WNW 5.8 mph - 0.03 in Rain Light Rain
2:34 AM 42.8 °F 41.1 °F 39.2 °F 87% 29.98 in 7.0 mi WNW 3.5 mph - 0.04 in Rain Rain
2:52 AM 42.1 °F 39.2 °F 39.9 °F 92% 29.99 in 9.0 mi West 4.6 mph - 0.06 in Rain Light Rain
3:48 AM 42.8 °F 40.1 °F 39.2 °F 87% 29.97 in 9.0 mi WSW 4.6 mph - 0.04 in Rain Light Rain
3:52 AM 42.1 °F 39.2 °F 39.9 °F 92% 29.97 in 9.0 mi West 4.6 mph - 0.05 in Rain Light Rain
4:17 AM 42.8 °F 41.1 °F 41.0 °F 93% 29.97 in 10.0 mi WSW 3.5 mph - 0.00 in Rain Light Rain
4:52 AM 41.0 °F - 39.9 °F 96% 29.96 in 10.0 mi Calm Calm - 0.01 in Rain Light Rain
5:52 AM 41.0 °F 38.0 °F 39.9 °F 96% 29.97 in 10.0 mi SW 4.6 mph - 0.00 in Rain Light Rain
6:52 AM 39.0 °F 34.8 °F 37.9 °F 96% 29.97 in 10.0 mi WSW 5.8 mph - N/A   Scattered Clouds
7:52 AM 39.0 °F 33.4 °F 37.9 °F 96% 29.99 in 10.0 mi WSW 8.1 mph - N/A   Partly Cloudy
8:07 AM 39.2 °F 34.2 °F 39.2 °F 100% 29.98 in 10.0 mi WSW 6.9 mph - N/A   Mostly Cloudy
8:52 AM 41.0 °F 34.7 °F 39.0 °F 93% 29.99 in 10.0 mi West 10.4 mph - N/A   Mostly Cloudy
9:15 AM 42.8 °F 36.2 °F 39.2 °F 87% 29.97 in 10.0 mi West 12.7 mph - N/A   Scattered Clouds
9:52 AM 44.1 °F 37.7 °F 37.9 °F 79% 29.98 in 10.0 mi West 12.7 mph - N/A   Clear
10:52 AM 46.9 °F - 37.9 °F 71% 29.98 in 10.0 mi WSW 11.5 mph - N/A   Mostly Cloudy
11:52 AM 51.1 °F - 37.9 °F 61% 29.96 in 10.0 mi WSW 16.1 mph 20.7 mph N/A   Partly Cloudy
12:52 PM 52.0 °F - 37.0 °F 57% 29.94 in 10.0 mi WSW 15.0 mph 20.7 mph N/A   Partly Cloudy
1:52 PM 53.1 °F - 36.0 °F 52% 29.93 in 10.0 mi WSW 11.5 mph 23.0 mph N/A   Partly Cloudy
2:52 PM 55.0 °F - 34.0 °F 45% 29.91 in 10.0 mi WSW 15.0 mph 25.3 mph N/A   Partly Cloudy
3:52 PM 55.9 °F - 34.0 °F 44% 29.91 in 10.0 mi WSW 13.8 mph 20.7 mph N/A   Clear
4:52 PM 55.9 °F - 32.0 °F 40% 29.90 in 10.0 mi WSW 13.8 mph 19.6 mph N/A   Clear
5:52 PM 53.1 °F - 32.0 °F 45% 29.91 in 10.0 mi SW 8.1 mph - N/A   Clear
6:52 PM 50.0 °F - 34.0 °F 54% 29.92 in 10.0 mi SW 6.9 mph - N/A   Partly Cloudy
7:52 PM 46.0 °F 42.5 °F 35.1 °F 66% 29.94 in 10.0 mi SSW 6.9 mph - N/A   Scattered Clouds
8:52 PM 48.0 °F - 36.0 °F 63% 29.93 in 10.0 mi SSW 9.2 mph - N/A   Mostly Cloudy
9:52 PM 48.0 °F - 36.0 °F 63% 29.93 in 10.0 mi SSW 9.2 mph - N/A   Overcast
10:52 PM 48.9 °F - 36.0 °F 61% 29.93 in 10.0 mi SSW 9.2 mph 17.3 mph N/A   Overcast
11:52 PM 46.0 °F 41.4 °F 36.0 °F 68% 29.93 in 10.0 mi SSW 9.2 mph - N/A   Partly Cloudy